Hourly Weather Kyursola

Today, 24 October, Saturday

Time Temperature Precipitation Wind Pressure Humidity
00:00 +3°C° 0.1 mm 3 mps 737 mmHg 99%
01:00 +3°C° 1.5 mm 3 mps 736 mmHg 98%
02:00 +4°C° 1.5 mm 3 mps 736 mmHg 98%
03:00 +4°C° 1.5 mm 3 mps 735 mmHg 98%
04:00 +4°C° 1.3 mm 3 mps 735 mmHg 98%
05:00 +5°C° 1.3 mm 3 mps 734 mmHg 98%
06:00 +6°C° 1.3 mm 2 mps 734 mmHg 99%
07:00 +5°C° 0.1 mm 3 mps 734 mmHg 98%
08:00 +6°C° 0.1 mm 4 mps 735 mmHg 97%
09:00 +6°C° 0.1 mm 5 mps 735 mmHg 96%
10:00 +7°C° 0 mm 5 mps 735 mmHg 94%
11:00 +7°C° 0 mm 5 mps 736 mmHg 91%
12:00 +8°C° 0 mm 5 mps 736 mmHg 89%
13:00 +8°C° 0.1 mm 5 mps 737 mmHg 88%
14:00 +8°C° 0.1 mm 4 mps 737 mmHg 87%
15:00 +8°C° 0.1 mm 4 mps 738 mmHg 86%
16:00 +7°C° 0.1 mm 4 mps 738 mmHg 88%
17:00 +6°C° 0.1 mm 4 mps 739 mmHg 89%
18:00 +5°C° 0.1 mm 4 mps 739 mmHg 91%
19:00 +5°C° 0 mm 4 mps 739 mmHg 91%
20:00 +5°C° 0 mm 3 mps 740 mmHg 91%
21:00 +4°C° 0 mm 3 mps 740 mmHg 91%
22:00 +4°C° 0 mm 3 mps 740 mmHg 90%
23:00 +4°C° 0 mm 3 mps 741 mmHg 90%

Tomorrow, 25 October, Sunday

Time Temperature Precipitation Wind Pressure Humidity
00:00 +3°C° 0 mm 3 mps 741 mmHg 89%
01:00 +4°C° 0 mm 2 mps 741 mmHg 91%
02:00 +3°C° 0 mm 2 mps 741 mmHg 92%
03:00 +2°C° 0 mm 2 mps 741 mmHg 94%
04:00 +2°C° 0 mm 2 mps 741 mmHg 94%
05:00 +1°C° 0 mm 2 mps 741 mmHg 95%
06:00 +2°C° 0 mm 1 mps 741 mmHg 95%
07:00 +2°C° 0 mm 1 mps 741 mmHg 92%
08:00 +3°C° 0 mm 1 mps 741 mmHg 89%
09:00 +3°C° 0 mm 1 mps 742 mmHg 85%
10:00 +4°C° 0 mm 1 mps 741 mmHg 81%
11:00 +4°C° 0 mm 1 mps 741 mmHg 76%
12:00 +5°C° 0 mm 1 mps 741 mmHg 71%
13:00 +5°C° 0 mm 1 mps 741 mmHg 72%
14:00 +5°C° 0 mm 1 mps 742 mmHg 72%
15:00 +5°C° 0 mm 1 mps 742 mmHg 73%
16:00 +3°C° 0 mm 2 mps 742 mmHg 77%
17:00 +2°C° 0 mm 2 mps 742 mmHg 82%
18:00 +1°C° 0 mm 2 mps 742 mmHg 86%
19:00 -1°C° 0 mm 3 mps 742 mmHg 88%
20:00 -1°C° 0 mm 3 mps 743 mmHg 89%
21:00 -1°C° 0 mm 3 mps 743 mmHg 90%
22:00 -1°C° 0 mm 3 mps 743 mmHg 91%
23:00 -2°C° 0 mm 4 mps 744 mmHg 91%

Day after tomorrow, 26 October, Monday

Time Temperature Precipitation Wind Pressure Humidity
00:00 -2°C° 0 mm 4 mps 744 mmHg 91%
01:00 -2°C° 0 mm 4 mps 745 mmHg 90%
02:00 -2°C° 0 mm 4 mps 745 mmHg 89%
03:00 -2°C° 0 mm 4 mps 746 mmHg 88%
04:00 -3°C° 0 mm 4 mps 746 mmHg 89%
05:00 -3°C° 0 mm 4 mps 746 mmHg 90%
06:00 -3°C° 0 mm 4 mps 746 mmHg 91%
07:00 -3°C° 0 mm 4 mps 747 mmHg 88%
08:00 -2°C° 0 mm 5 mps 747 mmHg 86%
09:00 -2°C° 0 mm 5 mps 747 mmHg 84%
10:00 -1°C° 0 mm 5 mps 748 mmHg 79%
11:00 -2°C° 0 mm 6 mps 748 mmHg 75%
12:00 -2°C° 0 mm 6 mps 749 mmHg 70%
13:00 -2°C° 0 mm 6 mps 749 mmHg 70%
14:00 -2°C° 0 mm 6 mps 750 mmHg 71%
15:00 -2°C° 0 mm 6 mps 751 mmHg 71%
16:00 -2°C° 0 mm 5 mps 751 mmHg 71%
17:00 -2°C° 0 mm 5 mps 752 mmHg 72%
18:00 -2°C° 0 mm 5 mps 752 mmHg 72%
19:00 -2°C° 0 mm 4 mps 753 mmHg 72%
20:00 -2°C° 0 mm 4 mps 753 mmHg 71%
21:00 -2°C° 0 mm 4 mps 754 mmHg 71%
22:00 -2°C° 0 mm 3 mps 754 mmHg 76%
23:00 -4°C° 0 mm 3 mps 755 mmHg 82%

, 27 October, Tuesday

Time Temperature Precipitation Wind Pressure Humidity
00:00 -4°C° 0 mm 2 mps 755 mmHg 87%
01:00 -4°C° 0 mm 2 mps 755 mmHg 87%
02:00 -4°C° 0 mm 2 mps 756 mmHg 88%
03:00 -4°C° 0 mm 2 mps 756 mmHg 89%
04:00 -4°C° 0 mm 2 mps 756 mmHg 88%
05:00 -4°C° 0 mm 2 mps 757 mmHg 88%
06:00 -4°C° 0 mm 2 mps 757 mmHg 88%
07:00 -3°C° 0 mm 2 mps 757 mmHg 84%
08:00 -3°C° 0 mm 2 mps 758 mmHg 80%
09:00 -2°C° 0 mm 2 mps 758 mmHg 76%
10:00 -1°C° 0 mm 2 mps 758 mmHg 72%
11:00 -1°C° 0 mm 2 mps 759 mmHg 67%
12:00 +2°C° 0 mm 1 mps 759 mmHg 62%
13:00 +2°C° 0 mm 1 mps 759 mmHg 63%
14:00 +2°C° 0 mm 1 mps 759 mmHg 64%
15:00 +2°C° 0 mm 1 mps 759 mmHg 66%
16:00 +1°C° 0 mm 1 mps 759 mmHg 69%
17:00 +1°C° 0 mm 1 mps 759 mmHg 72%
18:00 -1°C° 0 mm 0 mps 759 mmHg 76%
19:00 -1°C° 0 mm 0 mps 759 mmHg 76%
20:00 0°C° 0 mm 1 mps 759 mmHg 77%
21:00 -1°C° 0 mm 1 mps 759 mmHg 77%
22:00 -1°C° 0 mm 1 mps 759 mmHg 78%
23:00 -1°C° 0 mm 1 mps 760 mmHg 78%

27 October, Tuesday

Time Temperature Precipitation Wind Pressure Humidity
00:00 -4°C° 0 mm 2 mps 755 mmHg 87%
01:00 -4°C° 0 mm 2 mps 755 mmHg 87%
02:00 -4°C° 0 mm 2 mps 756 mmHg 88%
03:00 -4°C° 0 mm 2 mps 756 mmHg 89%
04:00 -4°C° 0 mm 2 mps 756 mmHg 88%
05:00 -4°C° 0 mm 2 mps 757 mmHg 88%
06:00 -4°C° 0 mm 2 mps 757 mmHg 88%
07:00 -3°C° 0 mm 2 mps 757 mmHg 84%
08:00 -3°C° 0 mm 2 mps 758 mmHg 80%
09:00 -2°C° 0 mm 2 mps 758 mmHg 76%
10:00 -1°C° 0 mm 2 mps 758 mmHg 72%
11:00 -1°C° 0 mm 2 mps 759 mmHg 67%
12:00 +2°C° 0 mm 1 mps 759 mmHg 62%
13:00 +2°C° 0 mm 1 mps 759 mmHg 63%
14:00 +2°C° 0 mm 1 mps 759 mmHg 64%
15:00 +2°C° 0 mm 1 mps 759 mmHg 66%
16:00 +1°C° 0 mm 1 mps 759 mmHg 69%
17:00 +1°C° 0 mm 1 mps 759 mmHg 72%
18:00 -1°C° 0 mm 0 mps 759 mmHg 76%
19:00 -1°C° 0 mm 0 mps 759 mmHg 76%
20:00 0°C° 0 mm 1 mps 759 mmHg 77%
21:00 -1°C° 0 mm 1 mps 759 mmHg 77%
22:00 -1°C° 0 mm 1 mps 759 mmHg 78%
23:00 -1°C° 0 mm 1 mps 760 mmHg 78%

28 October, Wednesday

Time Temperature Precipitation Wind Pressure Humidity
00:00 -1°C° 0 mm 1 mps 760 mmHg 79%
01:00 -3°C° 0 mm 2 mps 759 mmHg 79%
02:00 -3°C° 0 mm 2 mps 759 mmHg 80%
03:00 -3°C° 0 mm 2 mps 759 mmHg 81%
04:00 -3°C° 0 mm 2 mps 759 mmHg 81%
05:00 -3°C° 0 mm 2 mps 759 mmHg 81%
06:00 -3°C° 0 mm 2 mps 760 mmHg 81%
07:00 -2°C° 0 mm 2 mps 760 mmHg 78%
08:00 -1°C° 0 mm 3 mps 760 mmHg 75%
09:00 -1°C° 0 mm 3 mps 760 mmHg 72%
10:00 0°C° 0 mm 3 mps 760 mmHg 69%
11:00 +1°C° 0 mm 3 mps 760 mmHg 66%
12:00 +2°C° 0 mm 3 mps 760 mmHg 63%
13:00 +2°C° 0 mm 3 mps 759 mmHg 65%
14:00 +2°C° 0 mm 3 mps 759 mmHg 68%
15:00 +2°C° 0 mm 3 mps 759 mmHg 71%
16:00 +1°C° 0 mm 3 mps 759 mmHg 75%
17:00 0°C° 0 mm 3 mps 759 mmHg 80%
18:00 -1°C° 0 mm 3 mps 759 mmHg 85%
19:00 -1°C° 0 mm 3 mps 759 mmHg 86%
20:00 -1°C° 0 mm 3 mps 759 mmHg 87%
21:00 -1°C° 0 mm 3 mps 759 mmHg 88%
22:00 -2°C° 0 mm 4 mps 759 mmHg 86%
23:00 -2°C° 0 mm 4 mps 759 mmHg 85%

29 October, Thursday

Time Temperature Precipitation Wind Pressure Humidity
00:00 -2°C° 0 mm 4 mps 759 mmHg 84%
01:00 -2°C° 0 mm 4 mps 759 mmHg 83%
02:00 -2°C° 0 mm 4 mps 759 mmHg 82%
03:00 -2°C° 0 mm 4 mps 759 mmHg 81%
04:00 -3°C° 0 mm 4 mps 759 mmHg 80%
05:00 -3°C° 0 mm 4 mps 759 mmHg 80%
06:00 -3°C° 0 mm 4 mps 759 mmHg 80%
07:00 -2°C° 0 mm 4 mps 759 mmHg 75%
08:00 -1°C° 0 mm 4 mps 759 mmHg 71%
09:00 -1°C° 0 mm 4 mps 759 mmHg 66%
10:00 0°C° 0 mm 4 mps 759 mmHg 63%
11:00 +1°C° 0 mm 4 mps 759 mmHg 60%
12:00 +3°C° 0 mm 4 mps 759 mmHg 57%
13:00 +3°C° 0 mm 4 mps 759 mmHg 60%
14:00 +1°C° 0 mm 4 mps 759 mmHg 64%
15:00 +2°C° 0 mm 3 mps 759 mmHg 67%
16:00 +1°C° 0 mm 3 mps 759 mmHg 71%
17:00 0°C° 0 mm 3 mps 759 mmHg 76%
18:00 -1°C° 0 mm 3 mps 759 mmHg 80%
19:00 -1°C° 0 mm 3 mps 759 mmHg 80%
20:00 -1°C° 0 mm 3 mps 759 mmHg 80%
21:00 -2°C° 0 mm 3 mps 759 mmHg 80%
22:00 -2°C° 0 mm 3 mps 759 mmHg 80%
23:00 -2°C° 0 mm 3 mps 758 mmHg 81%
Show more

We Need Your Consent

Meteoprog and our Service Providers may store and access personal data such as cookies, device identifiers or other similar technologies on your device and process such data to personalise content and ads, as well as provide social media features and to analyse the traffic.

  • Store and/or access information on your device

    Cookies, device identifiers or other information can be stored or accessed on your device for the purposes indicated above.

  • Personalised ads and content, ad and content measurement, audience insights, and products development

    Ads and content can be personalised based on a profile. More data can be added to better personalise ads and content. Ad and content performance can be measured. Insights about the audience who saw the ads and content can be derived. Such data can be used to develop or improve user’s experience, systems and software.

By clicking ‘I Agree’ you will allow the use of indicated cookies, device identifiers, web beacons or other similar technologies. Your settings can be changed in the browser on your device.

For certain purposes, legitimate interests may be relied on, rather than consent. You can read more about this in our Privacy and Cookie Policy.